Year,Month,Day,Hour,Minute,Value (Times are PST for temperature in C)
2013,08,21,00,00,10.10
2013,08,21,00,01,10.10
2013,08,21,00,02,10.10
2013,08,21,00,03,10.10
2013,08,21,00,04,10.10
2013,08,21,00,05,10.10
2013,08,21,00,06,10.10
2013,08,21,00,07,10.10
2013,08,21,00,08,10.10
2013,08,21,00,09,10.10
2013,08,21,00,10,10.10
2013,08,21,00,11,10.10
2013,08,21,00,12,10.10
2013,08,21,00,13,10.10
2013,08,21,00,14,10.10
2013,08,21,00,15,10.10
2013,08,21,00,16,10.10
2013,08,21,00,17,10.10
2013,08,21,00,18,10.20
2013,08,21,00,19,10.10
2013,08,21,00,20,10.10
2013,08,21,00,21,10.10
2013,08,21,00,22,10.10
2013,08,21,00,23,10.10
2013,08,21,00,24,10.10
2013,08,21,00,25,10.10
2013,08,21,00,26,10.10
2013,08,21,00,27,10.10
2013,08,21,00,28,10.10
2013,08,21,00,29,10.10
2013,08,21,00,30,10.10
2013,08,21,00,31,10.20
2013,08,21,00,32,10.20
2013,08,21,00,33,10.20
2013,08,21,00,34,10.30
2013,08,21,00,35,10.30
2013,08,21,00,36,10.30
2013,08,21,00,37,10.30
2013,08,21,00,38,10.30
2013,08,21,00,39,10.30
2013,08,21,00,40,10.30
2013,08,21,00,41,10.30
2013,08,21,00,42,10.20
2013,08,21,00,43,10.20
2013,08,21,00,44,10.20
2013,08,21,00,45,10.20
2013,08,21,00,46,10.30
2013,08,21,00,47,10.30
2013,08,21,00,48,10.20
2013,08,21,00,49,10.20
2013,08,21,00,50,10.20
2013,08,21,00,51,10.20
2013,08,21,00,52,10.20
2013,08,21,00,53,10.10
2013,08,21,00,54,10.10
2013,08,21,00,55,10.10
2013,08,21,00,56,10.10
2013,08,21,00,57,10.10
2013,08,21,00,58,10.10
2013,08,21,00,59,10.10
2013,08,21,01,00,10.10
2013,08,21,01,01,10.10
2013,08,21,01,02,10.10
2013,08,21,01,03,10.10
2013,08,21,01,04,10.10
2013,08,21,01,05,10.10
2013,08,21,01,06,10.10
2013,08,21,01,07,10.10
2013,08,21,01,08,10.10
2013,08,21,01,09,10.10
2013,08,21,01,10,10.10
2013,08,21,01,11,10.10
2013,08,21,01,12,10.10
2013,08,21,01,13,10.10
2013,08,21,01,14,10.10
2013,08,21,01,15,10.10
2013,08,21,01,16,10.10
2013,08,21,01,17,10.10
2013,08,21,01,18,10.10
2013,08,21,01,19,10.10
2013,08,21,01,20,10.10
2013,08,21,01,21,10.20
2013,08,21,01,22,10.20
2013,08,21,01,23,10.20
2013,08,21,01,24,10.10
2013,08,21,01,25,10.10
2013,08,21,01,26,10.10
2013,08,21,01,27,10.10
2013,08,21,01,28,10.10
2013,08,21,01,29,10.10
2013,08,21,01,30,10.10
2013,08,21,01,31,10.10
2013,08,21,01,32,10.10
2013,08,21,01,33,10.00
2013,08,21,01,34,9.90
2013,08,21,01,35,9.90
2013,08,21,01,36,9.90
2013,08,21,01,37,9.90
2013,08,21,01,38,9.90
2013,08,21,01,39,9.90
2013,08,21,01,40,9.90
2013,08,21,01,41,9.90
2013,08,21,01,42,9.90
2013,08,21,01,43,9.80
2013,08,21,01,44,9.80
2013,08,21,01,45,9.80
2013,08,21,01,46,9.80
2013,08,21,01,47,9.80
2013,08,21,01,48,9.80
2013,08,21,01,49,9.90
2013,08,21,01,50,9.90
2013,08,21,01,51,9.90
2013,08,21,01,52,9.90
2013,08,21,01,53,9.90
2013,08,21,01,54,9.90
2013,08,21,01,55,9.90
2013,08,21,01,56,9.90
2013,08,21,01,57,9.90
2013,08,21,01,58,9.90
2013,08,21,01,59,9.90
2013,08,21,02,00,9.90
2013,08,21,02,01,9.90
2013,08,21,02,02,9.90
2013,08,21,02,03,9.90
2013,08,21,02,04,9.90
2013,08,21,02,05,9.90
2013,08,21,02,06,9.90
2013,08,21,02,07,9.90
2013,08,21,02,08,9.90
2013,08,21,02,09,9.90
2013,08,21,02,10,9.90
2013,08,21,02,11,9.90
2013,08,21,02,12,9.90
2013,08,21,02,13,9.90
2013,08,21,02,14,9.90
2013,08,21,02,15,9.90
2013,08,21,02,16,9.90
2013,08,21,02,17,9.90
2013,08,21,02,18,9.90
2013,08,21,02,19,9.90
2013,08,21,02,20,9.90
2013,08,21,02,21,9.90
2013,08,21,02,22,9.90
2013,08,21,02,23,9.90
2013,08,21,02,24,9.80
2013,08,21,02,25,9.80
2013,08,21,02,26,9.80
2013,08,21,02,27,9.80
2013,08,21,02,28,9.80
2013,08,21,02,29,9.80
2013,08,21,02,30,9.80
2013,08,21,02,31,9.70
2013,08,21,02,32,9.70
2013,08,21,02,33,9.70
2013,08,21,02,34,9.70
2013,08,21,02,35,9.70
2013,08,21,02,36,9.70
2013,08,21,02,37,9.70
2013,08,21,02,38,9.70
2013,08,21,02,39,9.70
2013,08,21,02,40,9.70
2013,08,21,02,41,9.70
2013,08,21,02,42,9.70
2013,08,21,02,43,9.70
2013,08,21,02,44,9.70
2013,08,21,02,45,9.70
2013,08,21,02,46,9.70
2013,08,21,02,47,9.70
2013,08,21,02,48,9.70
2013,08,21,02,49,9.80
2013,08,21,02,50,9.90
2013,08,21,02,51,9.90
2013,08,21,02,52,9.90
2013,08,21,02,53,9.80
2013,08,21,02,54,9.80
2013,08,21,02,55,9.80
2013,08,21,02,56,9.70
2013,08,21,02,57,9.70
2013,08,21,02,58,9.70
2013,08,21,02,59,9.70
2013,08,21,03,00,9.60
2013,08,21,03,01,9.60
2013,08,21,03,02,9.60
2013,08,21,03,03,9.60
2013,08,21,03,04,9.60
2013,08,21,03,05,9.60
2013,08,21,03,06,9.60
2013,08,21,03,07,9.60
2013,08,21,03,08,9.60
2013,08,21,03,09,9.60
2013,08,21,03,10,9.60
2013,08,21,03,11,9.60
2013,08,21,03,12,9.60
2013,08,21,03,13,9.60
2013,08,21,03,14,9.60
2013,08,21,03,15,9.60
2013,08,21,03,16,9.50
2013,08,21,03,17,9.50
2013,08,21,03,18,9.40
2013,08,21,03,19,9.40
2013,08,21,03,20,9.40
2013,08,21,03,21,9.30
2013,08,21,03,22,9.30
2013,08,21,03,23,9.20
2013,08,21,03,24,9.20
2013,08,21,03,25,9.20
2013,08,21,03,26,9.20
2013,08,21,03,27,9.20
2013,08,21,03,28,9.20
2013,08,21,03,29,9.30
2013,08,21,03,30,9.30
2013,08,21,03,31,9.30
2013,08,21,03,32,9.30
2013,08,21,03,33,9.30
2013,08,21,03,34,9.30
2013,08,21,03,35,9.40
2013,08,21,03,36,9.40
2013,08,21,03,37,9.40
2013,08,21,03,38,9.50
2013,08,21,03,39,9.50
2013,08,21,03,40,9.60
2013,08,21,03,41,9.60
2013,08,21,03,42,9.70
2013,08,21,03,43,9.70
2013,08,21,03,44,9.70
2013,08,21,03,45,9.80
2013,08,21,03,46,9.80
2013,08,21,03,47,9.80
2013,08,21,03,48,9.80
2013,08,21,03,49,9.80
2013,08,21,03,50,9.80
2013,08,21,03,51,9.70
2013,08,21,03,52,9.70
2013,08,21,03,53,9.70
2013,08,21,03,54,9.70
2013,08,21,03,55,9.70
2013,08,21,03,56,9.60
2013,08,21,03,57,9.60
2013,08,21,03,58,9.60
2013,08,21,03,59,9.60
2013,08,21,04,00,9.60
2013,08,21,04,01,9.50
2013,08,21,04,02,9.50
2013,08,21,04,03,9.50
2013,08,21,04,04,9.50
2013,08,21,04,05,9.40
2013,08,21,04,06,9.40
2013,08,21,04,07,9.40
2013,08,21,04,08,9.40
2013,08,21,04,09,9.30
2013,08,21,04,10,9.30
2013,08,21,04,11,9.30
2013,08,21,04,12,9.30
2013,08,21,04,13,9.30
2013,08,21,04,14,9.30
2013,08,21,04,15,9.20
2013,08,21,04,16,9.30
2013,08,21,04,17,9.30
2013,08,21,04,18,9.30
2013,08,21,04,19,9.30
2013,08,21,04,20,9.30
2013,08,21,04,21,9.30
2013,08,21,04,22,9.30
2013,08,21,04,23,9.30
2013,08,21,04,24,9.20
2013,08,21,04,25,9.20
2013,08,21,04,26,9.20
2013,08,21,04,27,9.20
2013,08,21,04,28,9.20
2013,08,21,04,29,9.20
2013,08,21,04,30,9.20
2013,08,21,04,31,9.20
2013,08,21,04,32,9.20
2013,08,21,04,33,9.30
2013,08,21,04,34,9.30
2013,08,21,04,35,9.40
2013,08,21,04,36,9.40
2013,08,21,04,37,9.40
2013,08,21,04,38,9.40
2013,08,21,04,39,9.40
2013,08,21,04,40,9.40
2013,08,21,04,41,9.30
2013,08,21,04,42,9.30
2013,08,21,04,43,9.30
2013,08,21,04,44,9.30
2013,08,21,04,45,9.30
2013,08,21,04,46,9.30
2013,08,21,04,47,9.30
2013,08,21,04,48,9.30
2013,08,21,04,49,9.30
2013,08,21,04,50,9.30
2013,08,21,04,51,9.30
2013,08,21,04,52,9.30
2013,08,21,04,53,9.30
2013,08,21,04,54,9.30
2013,08,21,04,55,9.30
2013,08,21,04,56,9.30
2013,08,21,04,57,9.30
2013,08,21,04,58,9.30
2013,08,21,04,59,9.20
2013,08,21,05,00,9.20
2013,08,21,05,01,9.20
2013,08,21,05,02,9.20
2013,08,21,05,03,9.10
2013,08,21,05,04,9.10
2013,08,21,05,05,9.10
2013,08,21,05,06,9.10
2013,08,21,05,07,9.10
2013,08,21,05,08,9.10
2013,08,21,05,09,9.10
2013,08,21,05,10,9.20
2013,08,21,05,11,9.20
2013,08,21,05,12,9.20
2013,08,21,05,13,9.20
2013,08,21,05,14,9.20
2013,08,21,05,15,9.20
2013,08,21,05,16,9.20
2013,08,21,05,17,9.20
2013,08,21,05,18,9.20
2013,08,21,05,19,9.20
2013,08,21,05,20,9.20
2013,08,21,05,21,9.20
2013,08,21,05,22,9.20
2013,08,21,05,23,9.20
2013,08,21,05,24,9.20
2013,08,21,05,25,9.20
2013,08,21,05,26,9.20
2013,08,21,05,27,9.20
2013,08,21,05,28,9.20
2013,08,21,05,29,9.20
2013,08,21,05,30,9.30
2013,08,21,05,31,9.30
2013,08,21,05,32,9.30
2013,08,21,05,33,9.30
2013,08,21,05,34,9.30
2013,08,21,05,35,9.30
2013,08,21,05,36,9.30
2013,08,21,05,37,9.30
2013,08,21,05,38,9.30
2013,08,21,05,39,9.30
2013,08,21,05,40,9.40
2013,08,21,05,41,9.30
2013,08,21,05,42,9.30
2013,08,21,05,43,9.30
2013,08,21,05,44,9.30
2013,08,21,05,45,9.20
2013,08,21,05,46,9.20
2013,08,21,05,47,9.20
2013,08,21,05,48,9.20
2013,08,21,05,49,9.20
2013,08,21,05,50,9.20
2013,08,21,05,51,9.20
2013,08,21,05,52,9.10
2013,08,21,05,53,9.10
2013,08,21,05,54,9.10
2013,08,21,05,55,9.00
2013,08,21,05,56,9.00
2013,08,21,05,57,9.00
2013,08,21,05,58,9.00
2013,08,21,05,59,9.00
2013,08,21,06,00,9.10
2013,08,21,06,01,9.10
2013,08,21,06,02,9.10
2013,08,21,06,03,9.10
2013,08,21,06,04,9.20
2013,08,21,06,05,9.20
2013,08,21,06,06,9.20
2013,08,21,06,07,9.20
2013,08,21,06,08,9.20
2013,08,21,06,09,9.20
2013,08,21,06,10,9.20
2013,08,21,06,11,9.20
2013,08,21,06,12,9.20
2013,08,21,06,13,9.10
2013,08,21,06,14,9.10
2013,08,21,06,15,9.10
2013,08,21,06,16,9.10
2013,08,21,06,17,9.10
2013,08,21,06,18,9.10
2013,08,21,06,19,9.20
2013,08,21,06,20,9.20
2013,08,21,06,21,9.20
2013,08,21,06,22,9.20
2013,08,21,06,23,9.20
2013,08,21,06,24,9.20
2013,08,21,06,25,9.20
2013,08,21,06,26,9.20
2013,08,21,06,27,9.20
2013,08,21,06,28,9.20
2013,08,21,06,29,9.20
2013,08,21,06,30,9.20
2013,08,21,06,31,9.20
2013,08,21,06,32,9.20
2013,08,21,06,33,9.20
2013,08,21,06,34,9.20
2013,08,21,06,35,9.20
2013,08,21,06,36,9.20
2013,08,21,06,37,9.20
2013,08,21,06,38,9.20
2013,08,21,06,39,9.20
2013,08,21,06,40,9.20
2013,08,21,06,41,9.20
2013,08,21,06,42,9.20
2013,08,21,06,43,9.20
2013,08,21,06,44,9.30
2013,08,21,06,45,9.30
2013,08,21,06,46,9.30
2013,08,21,06,47,9.40
2013,08,21,06,48,9.40
2013,08,21,06,49,9.50
2013,08,21,06,50,9.50
2013,08,21,06,51,9.60
2013,08,21,06,52,9.60
2013,08,21,06,53,9.70
2013,08,21,06,54,9.70
2013,08,21,06,55,9.70
2013,08,21,06,56,9.70
2013,08,21,06,57,9.70
2013,08,21,06,58,9.80
2013,08,21,06,59,9.80
2013,08,21,07,00,9.90
2013,08,21,07,01,9.90
2013,08,21,07,02,10.00
2013,08,21,07,03,10.10
2013,08,21,07,04,10.10
2013,08,21,07,05,10.20
2013,08,21,07,06,10.30
2013,08,21,07,07,10.40
2013,08,21,07,08,10.40
2013,08,21,07,09,10.50
2013,08,21,07,10,10.60
2013,08,21,07,11,10.70
2013,08,21,07,12,10.80
2013,08,21,07,13,10.90
2013,08,21,07,14,11.00
2013,08,21,07,15,11.10
2013,08,21,07,16,11.20
2013,08,21,07,17,11.30
2013,08,21,07,18,11.30
2013,08,21,07,19,11.40
2013,08,21,07,20,11.40
2013,08,21,07,21,11.50
2013,08,21,07,22,11.60
2013,08,21,07,23,11.60
2013,08,21,07,24,11.70
2013,08,21,07,25,11.80
2013,08,21,07,26,11.90
2013,08,21,07,27,12.00
2013,08,21,07,28,12.00
2013,08,21,07,29,12.10
2013,08,21,07,30,12.20
2013,08,21,07,31,12.20
2013,08,21,07,32,12.20
2013,08,21,07,33,12.20
2013,08,21,07,34,12.20
2013,08,21,07,35,12.30
2013,08,21,07,36,12.30
2013,08,21,07,37,12.40
2013,08,21,07,38,12.50
2013,08,21,07,39,12.60
2013,08,21,07,40,12.70
2013,08,21,07,41,12.90
2013,08,21,07,42,13.00
2013,08,21,07,43,13.10
2013,08,21,07,44,13.10
2013,08,21,07,45,13.20
2013,08,21,07,46,13.20
2013,08,21,07,47,13.20
2013,08,21,07,48,13.20
2013,08,21,07,49,13.20
2013,08,21,07,50,13.20
2013,08,21,07,51,13.20
2013,08,21,07,52,13.30
2013,08,21,07,53,13.40
2013,08,21,07,54,13.50
2013,08,21,07,55,13.60
2013,08,21,07,56,13.70
2013,08,21,07,57,13.70
2013,08,21,07,58,13.70
2013,08,21,07,59,13.80
2013,08,21,08,00,13.80
2013,08,21,08,01,13.90
2013,08,21,08,02,13.90
2013,08,21,08,03,13.90
2013,08,21,08,04,14.00
2013,08,21,08,05,14.00
2013,08,21,08,06,14.10
2013,08,21,08,07,14.20
2013,08,21,08,08,14.20
2013,08,21,08,09,14.40
2013,08,21,08,10,14.50
2013,08,21,08,11,14.60
2013,08,21,08,12,14.80
2013,08,21,08,13,14.90
2013,08,21,08,14,15.00
2013,08,21,08,15,15.20
2013,08,21,08,16,15.30
2013,08,21,08,17,15.40
2013,08,21,08,18,15.50
2013,08,21,08,19,15.70
2013,08,21,08,20,15.80
2013,08,21,08,21,16.00
2013,08,21,08,22,16.10
2013,08,21,08,23,16.20
2013,08,21,08,24,16.30
2013,08,21,08,25,16.40
2013,08,21,08,26,16.60
2013,08,21,08,27,16.80
2013,08,21,08,28,16.90
2013,08,21,08,29,17.10
2013,08,21,08,30,17.20
2013,08,21,08,31,17.30
2013,08,21,08,32,17.40
2013,08,21,08,33,17.40
2013,08,21,08,34,17.40
2013,08,21,08,35,17.30
2013,08,21,08,36,17.30
2013,08,21,08,37,17.30
2013,08,21,08,38,17.10
2013,08,21,08,39,17.00
2013,08,21,08,40,17.00
2013,08,21,08,41,16.90
2013,08,21,08,42,16.90
2013,08,21,08,43,16.80
2013,08,21,08,44,16.80
2013,08,21,08,45,16.90
2013,08,21,08,46,16.90
2013,08,21,08,47,16.90
2013,08,21,08,48,17.00
2013,08,21,08,49,17.00
2013,08,21,08,50,17.10
2013,08,21,08,51,17.30
2013,08,21,08,52,17.40
2013,08,21,08,53,17.50
2013,08,21,08,54,17.60
2013,08,21,08,55,17.70
2013,08,21,08,56,17.70
2013,08,21,08,57,17.80
2013,08,21,08,58,17.80
2013,08,21,08,59,17.80
2013,08,21,09,00,17.80
2013,08,21,09,01,17.90
2013,08,21,09,02,17.90
2013,08,21,09,03,17.80
2013,08,21,09,04,17.80
2013,08,21,09,05,17.90
2013,08,21,09,06,17.90
2013,08,21,09,07,17.90
2013,08,21,09,08,17.90
2013,08,21,09,09,17.90
2013,08,21,09,10,18.00
2013,08,21,09,11,18.10
2013,08,21,09,12,18.10
2013,08,21,09,13,18.10
2013,08,21,09,14,18.00
2013,08,21,09,15,17.90
2013,08,21,09,16,17.90
2013,08,21,09,17,17.90
2013,08,21,09,18,17.90
2013,08,21,09,19,17.90
2013,08,21,09,20,17.90
2013,08,21,09,21,17.90
2013,08,21,09,22,18.00
2013,08,21,09,23,18.10
2013,08,21,09,24,18.10
2013,08,21,09,25,18.20
2013,08,21,09,26,18.20
2013,08,21,09,27,18.30
2013,08,21,09,28,18.30
2013,08,21,09,29,18.30
2013,08,21,09,30,18.30
2013,08,21,09,31,18.30
2013,08,21,09,32,18.20
2013,08,21,09,33,18.20
2013,08,21,09,34,18.20
2013,08,21,09,35,18.20
2013,08,21,09,36,18.20
2013,08,21,09,37,18.20
2013,08,21,09,38,18.20
2013,08,21,09,39,18.10
2013,08,21,09,40,18.10
2013,08,21,09,41,18.10
2013,08,21,09,42,18.10
2013,08,21,09,43,18.10
2013,08,21,09,44,18.20
2013,08,21,09,45,18.30
2013,08,21,09,46,18.50
2013,08,21,09,47,18.50
2013,08,21,09,48,18.70
2013,08,21,09,49,18.80
2013,08,21,09,50,18.90
2013,08,21,09,51,18.90
2013,08,21,09,52,19.00
2013,08,21,09,53,19.10
2013,08,21,09,54,19.10
2013,08,21,09,55,19.10
2013,08,21,09,56,19.10
2013,08,21,09,57,19.10
2013,08,21,09,58,19.10
2013,08,21,09,59,19.10
2013,08,21,10,00,19.00
2013,08,21,10,01,18.80
2013,08,21,10,02,18.70
2013,08,21,10,03,18.50
2013,08,21,10,04,18.40
2013,08,21,10,05,18.20
2013,08,21,10,06,18.10
2013,08,21,10,07,17.90
2013,08,21,10,08,17.70
2013,08,21,10,09,17.50
2013,08,21,10,10,17.30
2013,08,21,10,11,17.20
2013,08,21,10,12,17.10
2013,08,21,10,13,16.90
2013,08,21,10,14,16.80
2013,08,21,10,15,16.70
2013,08,21,10,16,16.70
2013,08,21,10,17,16.80
2013,08,21,10,18,16.80
2013,08,21,10,19,16.90
2013,08,21,10,20,17.00
2013,08,21,10,21,17.10
2013,08,21,10,22,17.10
2013,08,21,10,23,17.20
2013,08,21,10,24,17.30
2013,08,21,10,25,17.40
2013,08,21,10,26,17.40
2013,08,21,10,27,17.40
2013,08,21,10,28,17.50
2013,08,21,10,29,17.60
2013,08,21,10,30,17.60
2013,08,21,10,31,17.50
2013,08,21,10,32,17.40
2013,08,21,10,33,17.40
2013,08,21,10,34,17.40
2013,08,21,10,35,17.30
2013,08,21,10,36,17.20
2013,08,21,10,37,17.20
2013,08,21,10,38,17.10
2013,08,21,10,39,17.00
2013,08,21,10,40,17.00
2013,08,21,10,41,16.90
2013,08,21,10,42,16.80
2013,08,21,10,43,16.70
2013,08,21,10,44,16.70
2013,08,21,10,45,16.60
2013,08,21,10,46,16.50
2013,08,21,10,47,16.50
2013,08,21,10,48,16.60
2013,08,21,10,49,16.60
2013,08,21,10,50,16.70
2013,08,21,10,51,16.70
2013,08,21,10,52,16.70
2013,08,21,10,53,16.70
2013,08,21,10,54,16.70
2013,08,21,10,55,16.70
2013,08,21,10,56,16.70
2013,08,21,10,57,16.70
2013,08,21,10,58,16.70
2013,08,21,10,59,16.70
2013,08,21,11,00,16.70
2013,08,21,11,01,16.90
2013,08,21,11,02,17.00
2013,08,21,11,03,17.20
2013,08,21,11,04,17.30
2013,08,21,11,05,17.30
2013,08,21,11,06,17.30
2013,08,21,11,07,17.30
2013,08,21,11,08,17.30
2013,08,21,11,09,17.30
2013,08,21,11,10,17.40
2013,08,21,11,11,17.50
2013,08,21,11,12,17.50
2013,08,21,11,13,17.60
2013,08,21,11,14,17.70
2013,08,21,11,15,17.70
2013,08,21,11,16,17.70
2013,08,21,11,17,17.70
2013,08,21,11,18,17.70
2013,08,21,11,19,17.70
2013,08,21,11,20,17.80
2013,08,21,11,21,17.80
2013,08,21,11,22,17.80
2013,08,21,11,23,17.80
2013,08,21,11,24,17.90
2013,08,21,11,25,17.90
2013,08,21,11,26,17.90
2013,08,21,11,27,17.90
2013,08,21,11,28,17.90
2013,08,21,11,29,17.90
2013,08,21,11,30,17.90
2013,08,21,11,31,17.90
2013,08,21,11,32,17.90
2013,08,21,11,33,17.90
2013,08,21,11,34,17.90
2013,08,21,11,35,17.80
2013,08,21,11,36,17.80
2013,08,21,11,37,17.70
2013,08,21,11,38,17.70
2013,08,21,11,39,17.70
2013,08,21,11,40,17.70
2013,08,21,11,41,17.70
2013,08,21,11,42,17.70
2013,08,21,11,43,17.60
2013,08,21,11,44,17.60
2013,08,21,11,45,17.70
2013,08,21,11,46,17.70
2013,08,21,11,47,17.80
2013,08,21,11,48,17.90
2013,08,21,11,49,17.90
2013,08,21,11,50,17.90
2013,08,21,11,51,17.90
2013,08,21,11,52,17.80
2013,08,21,11,53,17.80
2013,08,21,11,54,17.90
2013,08,21,11,55,17.90
2013,08,21,11,56,17.80
2013,08,21,11,57,17.80
2013,08,21,11,58,17.80
2013,08,21,11,59,17.80
2013,08,21,12,00,17.80
2013,08,21,12,01,17.80
2013,08,21,12,02,17.70
2013,08,21,12,03,17.70
2013,08,21,12,04,17.70
2013,08,21,12,05,17.70
2013,08,21,12,06,17.60
2013,08,21,12,07,17.60
2013,08,21,12,08,17.70
2013,08,21,12,09,17.70
2013,08,21,12,10,17.70
2013,08,21,12,11,17.80
2013,08,21,12,12,17.80
2013,08,21,12,13,17.80
2013,08,21,12,14,17.80
2013,08,21,12,15,17.80
2013,08,21,12,16,17.80
2013,08,21,12,17,17.70
2013,08,21,12,18,17.70
2013,08,21,12,19,17.70
2013,08,21,12,20,17.80
2013,08,21,12,21,17.80
2013,08,21,12,22,17.90
2013,08,21,12,23,17.90
2013,08,21,12,24,17.90
2013,08,21,12,25,17.90
2013,08,21,12,26,17.90
2013,08,21,12,27,17.90
2013,08,21,12,28,17.90
2013,08,21,12,29,17.90
2013,08,21,12,30,18.00
2013,08,21,12,31,17.90
2013,08,21,12,32,17.80
2013,08,21,12,33,17.70
2013,08,21,12,34,17.60
2013,08,21,12,35,17.70
2013,08,21,12,36,17.70
2013,08,21,12,37,17.70
2013,08,21,12,38,17.70
2013,08,21,12,39,17.60
2013,08,21,12,40,17.50
2013,08,21,12,41,17.40
2013,08,21,12,42,17.30
2013,08,21,12,43,17.40
2013,08,21,12,44,17.40
2013,08,21,12,45,17.40
2013,08,21,12,46,17.50
2013,08,21,12,47,17.50
2013,08,21,12,48,17.50
2013,08,21,12,49,17.50
2013,08,21,12,50,17.40
2013,08,21,12,51,17.40
2013,08,21,12,52,17.50
2013,08,21,12,53,17.50
2013,08,21,12,54,17.50
2013,08,21,12,55,17.60
2013,08,21,12,56,17.60
2013,08,21,12,57,17.70
2013,08,21,12,58,17.80
2013,08,21,12,59,17.70
2013,08,21,13,00,17.60
2013,08,21,13,01,17.60
2013,08,21,13,02,17.50
2013,08,21,13,03,17.60
2013,08,21,13,04,17.50
2013,08,21,13,05,17.50
2013,08,21,13,06,17.60
2013,08,21,13,07,17.60
2013,08,21,13,08,17.50
2013,08,21,13,09,17.50
2013,08,21,13,10,17.60
2013,08,21,13,11,17.50
2013,08,21,13,12,17.50
2013,08,21,13,13,17.50
2013,08,21,13,14,17.50
2013,08,21,13,15,17.40
2013,08,21,13,16,17.30
2013,08,21,13,17,17.30
2013,08,21,13,18,17.20
2013,08,21,13,19,17.30
2013,08,21,13,20,17.30
2013,08,21,13,21,17.30
2013,08,21,13,22,17.40
2013,08,21,13,23,17.50
2013,08,21,13,24,17.70
2013,08,21,13,25,17.80
2013,08,21,13,26,17.90
2013,08,21,13,27,17.90
2013,08,21,13,28,17.90
2013,08,21,13,29,17.90
2013,08,21,13,30,18.00
2013,08,21,13,31,18.00
2013,08,21,13,32,17.90
2013,08,21,13,33,17.90
2013,08,21,13,34,17.90
2013,08,21,13,35,18.10
2013,08,21,13,36,18.10
2013,08,21,13,37,18.20
2013,08,21,13,38,18.30
2013,08,21,13,39,18.30
2013,08,21,13,40,18.40
2013,08,21,13,41,18.50
2013,08,21,13,42,18.50
2013,08,21,13,43,18.40
2013,08,21,13,44,18.30
2013,08,21,13,45,18.30
2013,08,21,13,46,18.20
2013,08,21,13,47,18.00
2013,08,21,13,48,18.00
2013,08,21,13,49,18.00
2013,08,21,13,50,17.90
2013,08,21,13,51,17.90
2013,08,21,13,52,18.10
2013,08,21,13,53,18.10
2013,08,21,13,54,18.20
2013,08,21,13,55,18.20
2013,08,21,13,56,18.30
2013,08,21,13,57,18.30
2013,08,21,13,58,18.20
2013,08,21,13,59,18.30
2013,08,21,14,00,18.20
2013,08,21,14,01,18.20
2013,08,21,14,02,18.20
2013,08,21,14,03,18.20
2013,08,21,14,04,18.20
2013,08,21,14,05,18.20
2013,08,21,14,06,18.20
2013,08,21,14,07,18.20
2013,08,21,14,08,18.20
2013,08,21,14,09,18.30
2013,08,21,14,10,18.50
2013,08,21,14,11,18.50
2013,08,21,14,12,18.60
2013,08,21,14,13,18.80
2013,08,21,14,14,18.80
2013,08,21,14,15,18.90
2013,08,21,14,16,18.90
2013,08,21,14,17,18.80
2013,08,21,14,18,18.80
2013,08,21,14,19,18.70
2013,08,21,14,20,18.80
2013,08,21,14,21,18.90
2013,08,21,14,22,19.00
2013,08,21,14,23,19.10
2013,08,21,14,24,19.20
2013,08,21,14,25,19.30
2013,08,21,14,26,19.40
2013,08,21,14,27,19.40
2013,08,21,14,28,19.40
2013,08,21,14,29,19.60
2013,08,21,14,30,19.70
2013,08,21,14,31,19.80
2013,08,21,14,32,19.80
2013,08,21,14,33,19.80
2013,08,21,14,34,19.80
2013,08,21,14,35,19.90
2013,08,21,14,36,19.90
2013,08,21,14,37,19.90
2013,08,21,14,38,19.90
2013,08,21,14,39,19.90
2013,08,21,14,40,19.80
2013,08,21,14,41,19.90
2013,08,21,14,42,19.90
2013,08,21,14,43,20.00
2013,08,21,14,44,20.10
2013,08,21,14,45,20.20
2013,08,21,14,46,20.20
2013,08,21,14,47,20.20
2013,08,21,14,48,20.20
2013,08,21,14,49,20.20
2013,08,21,14,50,20.20
2013,08,21,14,51,20.20
2013,08,21,14,52,20.20
2013,08,21,14,53,20.20
2013,08,21,14,54,20.20
2013,08,21,14,55,20.20
2013,08,21,14,56,20.40
2013,08,21,14,57,20.40
2013,08,21,14,58,20.50
2013,08,21,14,59,20.60
2013,08,21,15,00,20.60
2013,08,21,15,01,20.70
2013,08,21,15,02,20.70
2013,08,21,15,03,20.70
2013,08,21,15,04,20.80
2013,08,21,15,05,20.90
2013,08,21,15,06,20.90
2013,08,21,15,07,21.00
2013,08,21,15,08,21.00
2013,08,21,15,09,21.00
2013,08,21,15,10,21.00
2013,08,21,15,11,20.90
2013,08,21,15,12,20.90
2013,08,21,15,13,20.90
2013,08,21,15,14,20.80
2013,08,21,15,15,20.80
2013,08,21,15,16,20.90
2013,08,21,15,17,20.90
2013,08,21,15,18,20.90
2013,08,21,15,19,21.00
2013,08,21,15,20,21.10
2013,08,21,15,21,21.10
2013,08,21,15,22,21.10
2013,08,21,15,23,21.10
2013,08,21,15,24,21.00
2013,08,21,15,25,20.90
2013,08,21,15,26,21.00
2013,08,21,15,27,21.00
2013,08,21,15,28,21.00
2013,08,21,15,29,21.10
2013,08,21,15,30,21.10
2013,08,21,15,31,21.10
2013,08,21,15,32,21.20
2013,08,21,15,33,21.30
2013,08,21,15,34,21.30
2013,08,21,15,35,21.30
2013,08,21,15,36,21.30
2013,08,21,15,37,21.30
2013,08,21,15,38,21.40
2013,08,21,15,39,21.50
2013,08,21,15,40,21.60
2013,08,21,15,41,21.70
2013,08,21,15,42,21.70
2013,08,21,15,43,21.70
2013,08,21,15,44,21.70
2013,08,21,15,45,21.80
2013,08,21,15,46,21.80
2013,08,21,15,47,21.80
2013,08,21,15,48,21.70
2013,08,21,15,49,21.70
2013,08,21,15,50,21.70
2013,08,21,15,51,21.60
2013,08,21,15,52,21.70
2013,08,21,15,53,21.70
2013,08,21,15,54,21.70
2013,08,21,15,55,21.60
2013,08,21,15,56,21.60
2013,08,21,15,57,21.60
2013,08,21,15,58,21.60
2013,08,21,15,59,21.70
2013,08,21,16,00,21.80
2013,08,21,16,01,21.80
2013,08,21,16,02,21.80
2013,08,21,16,03,21.70
2013,08,21,16,04,21.70
2013,08,21,16,05,21.60
2013,08,21,16,06,21.60
2013,08,21,16,07,21.40
2013,08,21,16,08,21.30
2013,08,21,16,09,21.40
2013,08,21,16,10,21.30
2013,08,21,16,11,21.30
2013,08,21,16,12,21.20
2013,08,21,16,13,21.10
2013,08,21,16,14,21.00
2013,08,21,16,15,20.90
2013,08,21,16,16,20.90
2013,08,21,16,17,20.90
2013,08,21,16,18,20.90
2013,08,21,16,19,20.80
2013,08,21,16,20,20.80
2013,08,21,16,21,20.70
2013,08,21,16,22,20.70
2013,08,21,16,23,20.60
2013,08,21,16,24,20.60
2013,08,21,16,25,20.50
2013,08,21,16,26,20.50
2013,08,21,16,27,20.60
2013,08,21,16,28,20.70
2013,08,21,16,29,20.80
2013,08,21,16,30,20.80
2013,08,21,16,31,20.80
2013,08,21,16,32,20.80
2013,08,21,16,33,20.80
2013,08,21,16,34,20.90
2013,08,21,16,35,21.00
2013,08,21,16,36,21.10
2013,08,21,16,37,21.20
2013,08,21,16,38,21.30
2013,08,21,16,39,21.30
2013,08,21,16,40,21.30
2013,08,21,16,41,21.20
2013,08,21,16,42,21.30
2013,08,21,16,43,21.30
2013,08,21,16,44,21.30
2013,08,21,16,45,21.40
2013,08,21,16,46,21.50
2013,08,21,16,47,21.60
2013,08,21,16,48,21.70
2013,08,21,16,49,21.70
2013,08,21,16,50,21.70
2013,08,21,16,51,21.80
2013,08,21,16,52,21.90
2013,08,21,16,53,22.00
2013,08,21,16,54,22.00
2013,08,21,16,55,22.10
2013,08,21,16,56,22.20
2013,08,21,16,57,22.20
2013,08,21,16,58,22.20
2013,08,21,16,59,22.20
2013,08,21,17,00,22.20
2013,08,21,17,01,22.20
2013,08,21,17,02,22.20
2013,08,21,17,03,22.30
2013,08,21,17,04,22.30
2013,08,21,17,05,22.30
2013,08,21,17,06,22.30
2013,08,21,17,07,22.30
2013,08,21,17,08,22.30
2013,08,21,17,09,22.30
2013,08,21,17,10,22.30
2013,08,21,17,11,22.30
2013,08,21,17,12,22.40
2013,08,21,17,13,22.40
2013,08,21,17,14,22.40
2013,08,21,17,15,22.40
2013,08,21,17,16,22.40
2013,08,21,17,17,22.40
2013,08,21,17,18,22.30
2013,08,21,17,19,22.30
2013,08,21,17,20,22.20
2013,08,21,17,21,22.20
2013,08,21,17,22,22.20
2013,08,21,17,23,22.30
2013,08,21,17,24,22.30
2013,08,21,17,25,22.50
2013,08,21,17,26,22.60
2013,08,21,17,27,22.70
2013,08,21,17,28,22.80
2013,08,21,17,29,22.90
2013,08,21,17,30,22.90
2013,08,21,17,31,22.90
2013,08,21,17,32,22.90
2013,08,21,17,33,22.90